Home   Weather   Los Angeles   Past weeks
Flag for USA

Past Weather in Los Angeles, California, USA — Yesterday and Last 2 Weeks

Now
73 °F

Clear.


Feels Like: 76 °F
Forecast: 88 / 68 °F
Wind: 5 mph from West

Location: Los Angeles / USC Campus Downtown

Current Time: Jul 23, 2019 at 10:42:42 pm

Latest Report: Jul 23, 2019 at 9:52 pm


Visibility: 10 mi

Pressure: 29.94 "Hg

Humidity: 66%

Dew Point: 61 °F

Location of Los AngelesLocation

Past Weather in Los Angeles — Graph

°F

Los Angeles Temperature Yesterday

Maximum temperature yesterday: 85 °F (at 12:52 pm)
Minimum temperature yesterday: 65 °F (at 1:09 am)
Average temperature yesterday: 72 °F

High & Low Weather Summary for the Past Weeks

 TemperatureHumidityPressure
High91 °F (Jul 23, 2:52 pm)93% (Jul 15, 5:52 am)30.05 "Hg (Jul 15, 5:52 am)
Low50 °F (Jul 8, 10:52 pm)19% (Jul 13, 4:52 pm)29.77 "Hg (Jul 12, 5:52 pm)
Average72 °F70%29.92 "Hg
* Reported Jul 8 8:52 pm — Jul 23 8:52 pm, Los Angeles. Weather by CustomWeather, © 2019

Note: Actual official high and low records may vary slightly from our data, if they occured in-between our weather recording intervals... More about our weather records

Advertising

Los Angeles Weather History for the Previous 24 Hours

Scroll right to see more
 ConditionsComfort  
Time TempWeatherWind HumidityBarometerVisibility
8:52 pm
Tue, Jul 23
75 °FClear.3 mph60%29.93 "Hg10 mi
7:52 pm77 °FSunny.No wind58%29.92 "Hg10 mi
6:52 pm81 °FSunny.5 mph51%29.90 "Hg10 mi
5:52 pm82 °FSunny.3 mph46%29.89 "Hg10 mi
4:52 pm88 °FSunny.5 mph33%29.88 "Hg10 mi
3:52 pm87 °FSunny.8 mph33%29.89 "Hg10 mi
2:52 pm91 °FSunny.6 mph34%29.90 "Hg10 mi
1:52 pm90 °FSunny.5 mph41%29.91 "Hg10 mi
12:52 pm86 °FSunny.5 mph43%29.93 "Hg10 mi
11:52 am84 °FPassing clouds.N/A46%29.95 "Hg10 mi
10:52 am75 °FPartly sunny.5 mph69%29.98 "Hg9 mi
9:52 am81 °FSunny.5 mph56%29.97 "Hg9 mi
8:52 am75 °FSunny.No wind69%29.97 "Hg9 mi
7:52 am72 °FSunny.No wind76%29.96 "Hg8 mi
6:52 am71 °FPassing clouds.No wind73%29.96 "Hg9 mi
5:52 am71 °FClear.No wind73%29.94 "Hg10 mi
4:52 am71 °FClear.No wind73%29.93 "Hg10 mi
3:52 am71 °FClear.No wind73%29.94 "Hg10 mi
2:52 am69 °FClear.No wind79%29.95 "Hg10 mi
1:52 am69 °FClear.3 mph79%29.96 "Hg10 mi
12:52 am69 °FClear.No wind76%29.96 "Hg10 mi
11:52 pm
Mon, Jul 22
70 °FClear.No wind76%29.96 "Hg10 mi
10:52 pm71 °FClear.No wind73%29.94 "Hg10 mi
Weather by CustomWeather, © 2019

See weather overview